Regional Weather Roundup
Issued by NWS

Home | Current Version | Previous Version | Graphics & Text | Print | Product List | Glossary On
Versions: 1 2 3 4 5 6 7 8 9 10 11 12 13 14 15 16 17 18 19 20 21 22 23 24 25 26 27 28 29 30 31 32 33 34 35 36 37 38 39 40 41 42 43 44 45 46 47 48 49 50
000
ASUS44 KMEG 230200
RWRTN
TENNESSEE HOURLY STATE WEATHER ROUNDUP
NATIONAL WEATHER SERVICE MEMPHIS TN
900 PM CDT FRI SEP 22 2017

TNZ002-004-019-021-049-052-054-088>092-230300-
WEST TENNESSEE

CITY           SKY/WX    TMP DP  RH WIND       PRES   REMARKS
MEMPHIS INTL   PTCLDY    83  68  60 E3        29.99R
NWS MEMPHIS      N/A     76 N/A N/A MISG        N/A
JACKSON        CLEAR     74  72  93 CALM      30.01R
DYERSBURG      CLEAR     75  70  84 CALM      30.01R
$$

TNZ008-025-027-028-033-062-065-066-230300-
NORTH MIDDLE TENNESSEE

CITY           SKY/WX    TMP DP  RH WIND       PRES   REMARKS
NASHVILLE      CLEAR     80  67  64 CALM      30.03R
CLARKSVILLE    CLEAR     74  66  76 CALM      30.02R
SMYRNA         CLEAR     80  70  71 CALM      30.02S
CROSSVILLE     CLEAR     69  66  90 CALM      30.11R
$$

TNZ061-075-076-078-094-096-097-230300-
SOUTH MIDDLE TENNESSEE

CITY           SKY/WX    TMP DP  RH WIND       PRES   REMARKS
TULLAHOMA        N/A     70  66  88 CALM      30.06R
MCMINNVILLE    PTCLDY    72  72 100 CALM      30.05R
$$

TNZ017-018-042-046-047-230300-
NORTHEAST TENNESSEE

CITY           SKY/WX    TMP DP  RH WIND       PRES   REMARKS
TRI CITIES     PTCLDY    69  64  84 CALM      30.08R
$$

TNZ012-013-036-069-073-074-230300-
CENTRAL EAST TENNESSEE

CITY           SKY/WX    TMP DP  RH WIND       PRES   REMARKS
KNOXVILLE      PTCLDY    75  66  73 E3        30.03R
OAK RIDGE      CLEAR     73  68  84 CALM      30.05S
GATLINBURG     PTCLDY    73  61  64 CALM      30.04R
$$

TNZ083-085-099-230300-
SOUTHEAST TENNESSEE

CITY           SKY/WX    TMP DP  RH WIND       PRES   REMARKS
CHATTANOOGA    PTCLDY    74  69  85 NW3       30.03R
$$

SKY/WX REPORTED AS FAIR MEANS FEW OR NO CLOUDS BELOW
12 THOUSAND FEET.





USA.gov is the U.S. government's official web portal to all federal, state and local government web resources and services.